This is the latest recevied weather packets stored in our database for station/object K6JWN. If no packets are shown the sender has not sent any weather packets the latest 10 day(s).
| Time | Temp. | Humidity | Pressure | Rain* | Wind** | Luminosity | Snow |
|---|---|---|---|---|---|---|---|
| 1777924157 | 14.44° C | 63% | 1015.1 hPa | 0 mm | - | - | - |
| 1777923557 | 14.44° C | 62% | 1014.9 hPa | 0 mm | - | - | - |
| 1777922957 | 15° C | 58% | 1014.8 hPa | 0 mm | - | - | - |
| 1777922357 | 15° C | 58% | 1014.9 hPa | 0 mm | - | - | - |
| 1777921757 | 15° C | 57% | 1015 hPa | 0 mm | - | - | - |
| 1777921157 | 15° C | 57% | 1015 hPa | 0 mm | - | - | - |
| 1777920557 | 15° C | 59% | 1014.9 hPa | 0 mm | - | - | - |
| 1777919957 | 15° C | 60% | 1015 hPa | 0 mm | - | - | - |
| 1777919357 | 15° C | 59% | 1015.2 hPa | 0 mm | - | - | - |
| 1777918757 | 15° C | 59% | 1015.2 hPa | 0 mm | - | - | - |
| 1777918157 | 14.44° C | 59% | 1015.2 hPa | 0 mm | - | - | - |
| 1777917557 | 14.44° C | 60% | 1015 hPa | 0 mm | - | - | - |
| 1777916957 | 14.44° C | 60% | 1015 hPa | 0 mm | - | - | - |
| 1777916357 | 14.44° C | 60% | 1014.8 hPa | 0 mm | - | - | - |
| 1777915757 | 14.44° C | 60% | 1014.7 hPa | 0 mm | - | - | - |
| 1777915157 | 14.44° C | 61% | 1014.7 hPa | 0 mm | - | - | - |
| 1777914557 | 14.44° C | 59% | 1014.8 hPa | 0 mm | - | - | - |
| 1777913959 | 14.44° C | 61% | 1014.7 hPa | 0 mm | - | - | - |
| 1777913357 | 14.44° C | 61% | 1014.7 hPa | 0 mm | - | - | - |
| 1777912756 | 13.89° C | 62% | 1014.7 hPa | 0 mm | - | - | - |
| 1777912157 | 13.89° C | 63% | 1014.7 hPa | 0 mm | - | - | - |
| 1777911557 | 13.89° C | 62% | 1014.6 hPa | 0 mm | - | - | - |
| 1777910957 | 13.89° C | 63% | 1014.6 hPa | 0 mm | - | - | - |
| 1777910357 | 13.89° C | 63% | 1014.6 hPa | 0 mm | - | - | - |
| 1777909756 | 13.33° C | 64% | 1014.4 hPa | 0 mm | - | - | - |
* Rain latest hour (hover to see other rain measurements)
** Current wind speed in m/s (hover to see current wind gust speed)